K3CHZ Weather Reports


Display with metric or nautical units.
time (UTC)temp
F
wind
direction
speed
MPH
gust
MPH
rain 1hr
in
rain 24hr
in
rain mn
in
humidity
%
barometer
mb
20260510160712 75 304 0.0 5.0 0.00 0.00 0.00 54 1013.9
20260510160212 75 215 2.0 5.0 0.00 0.00 0.00 51 1013.9
20260510155713 75 171 0.0 3.0 0.00 0.00 0.00 51 1013.8
20260510155212 75 269 0.0 2.0 0.00 0.00 0.00 50 1013.8
20260510154712 75 269 0.0 2.0 0.00 0.00 0.00 54 1013.8
20260510154211 75 9 0.0 2.0 0.00 0.00 0.00 53 1013.8
20260510153712 75 301 0.0 2.0 0.00 0.00 0.00 52 1013.9
20260510153211 75 301 0.0 3.0 0.00 0.00 0.00 55 1013.9
20260510152713 74 301 1.0 3.0 0.00 0.00 0.00 52 1013.9
20260510152218 74 242 1.0 3.0 0.00 0.00 0.00 52 1013.9
20260510151718 74 25 0.0 3.0 0.00 0.00 0.00 53 1013.9
20260510151218 74 28 0.0 3.0 0.00 0.00 0.00 54 1013.9
20260510150719 74 298 0.0 3.0 0.00 0.00 0.00 55 1013.9
20260510150218 73 279 0.0 3.0 0.00 0.00 0.00 56 1013.9
20260510145717 73 268 1.0 3.0 0.00 0.00 0.00 55 1013.8
20260510145218 73 300 1.0 3.0 0.00 0.00 0.00 58 1013.8
20260510144719 73 275 0.0 1.0 0.00 0.00 0.00 55 1013.8
20260510144219 73 277 0.0 1.0 0.00 0.00 0.00 57 1013.7
20260510143718 73 132 0.0 2.0 0.00 0.00 0.00 58 1013.6
20260510143219 72 132 0.0 2.0 0.00 0.00 0.00 58 1013.6
20260510142719 72 128 0.0 1.0 0.00 0.00 0.00 59 1013.6
20260510142218 72 129 0.0 1.0 0.00 0.00 0.00 58 1013.7
20260510141718 71 38 0.0 0.0 0.00 0.00 0.00 64 1013.7
20260510141219 71 37 0.0 0.0 0.00 0.00 0.00 62 1013.6
20260510140719 70 37 0.0 0.0 0.00 0.00 0.00 64 1013.7
20260510140218 70 37 0.0 0.0 0.00 0.00 0.00 65 1013.6
20260510135718 69 38 0.0 0.0 0.00 0.00 0.00 63 1013.7
20260510135218 68 38 0.0 0.0 0.00 0.00 0.00 65 1013.6
20260510134721 68 39 0.0 0.0 0.00 0.00 0.00 65 1013.7
20260510134218 67 36 0.0 0.0 0.00 0.00 0.00 70 1013.8
20260510133718 66 177 0.0 0.0 0.00 0.00 0.00 72 1013.8
20260510133218 65 177 0.0 0.0 0.00 0.00 0.00 73 1013.8
20260510132716 63 177 0.0 0.0 0.00 0.00 0.00 77 1013.7
20260510132215 62 177 0.0 0.0 0.00 0.00 0.00 77 1013.6
20260510131717 61 177 0.0 0.0 0.00 0.00 0.00 80 1013.7
20260510131215 61 176 0.0 0.0 0.00 0.00 0.00 85 1013.6
20260510130715 60 176 0.0 0.0 0.00 0.00 0.00 85 1013.5
20260510130215 59 176 0.0 0.0 0.00 0.00 0.00 87 1013.4
20260510125716 58 176 0.0 0.0 0.00 0.00 0.00 90 1013.6
20260510125215 58 176 0.0 0.0 0.00 0.00 0.00 93 1013.5
20260510124715 57 176 0.0 0.0 0.00 0.00 0.00 95 1013.6
20260510124216 56 176 0.0 0.0 0.00 0.00 0.00 96 1013.7
20260510123715 56 176 0.0 0.0 0.00 0.00 0.00 96 1013.7
20260510123215 56 176 0.0 0.0 0.00 0.00 0.00 97 1013.7
20260510122719 56 176 0.0 0.0 0.00 0.00 0.00 97 1013.7
20260510121716 55 176 0.0 0.0 0.00 0.00 0.00 97 1013.6
20260510121215 54 176 0.0 0.0 0.00 0.00 0.00 97 1013.5
20260510120717 54 176 0.0 0.0 0.00 0.00 0.00 97 1013.5
20260510120215 53 176 0.0 0.0 0.00 0.00 0.00 97 1013.6
20260510115715 53 176 0.0 0.0 0.00 0.00 0.00 97 1013.4
20260510115216 52 176 0.0 0.0 0.00 0.00 0.00 96 1013.3
20260510114715 52 176 0.0 0.0 0.00 0.00 0.00 96 1013.3
20260510114216 51 176 0.0 0.0 0.00 0.00 0.00 96 1013.1
20260510113716 51 176 0.0 0.0 0.00 0.00 0.00 95 1013.1
20260510112715 50 176 0.0 0.0 0.00 0.00 0.00 94 1013.1
20260510112215 50 176 0.0 0.0 0.00 0.00 0.00 95 1013.1
20260510111716 50 176 0.0 0.0 0.00 0.00 0.00 94 1013.1
20260510111215 50 175 0.0 0.0 0.00 0.00 0.00 94 1013.0
20260510110716 50 175 0.0 0.0 0.00 0.00 0.00 94 1012.9
20260510110215 50 175 0.0 0.0 0.00 0.00 0.00 94 1012.9
20260510105715 50 175 0.0 0.0 0.00 0.00 0.00 94 1012.9
20260510104718 49 175 0.0 0.0 0.00 0.00 0.00 94 1012.7
20260510104215 49 175 0.0 0.0 0.00 0.00 0.00 94 1012.4
20260510103715 49 175 0.0 0.0 0.00 0.00 0.00 94 1012.3
20260510103216 49 175 0.0 0.0 0.00 0.00 0.00 94 1012.2
20260510102717 49 175 0.0 0.0 0.00 0.00 0.00 94 1012.2
20260510102215 49 175 0.0 0.0 0.00 0.00 0.00 94 1012.1
20260510101715 49 175 0.0 0.0 0.00 0.00 0.00 94 1011.9
20260510101215 49 175 0.0 0.0 0.00 0.00 0.00 93 1011.9
20260510100715 49 175 0.0 0.0 0.00 0.00 0.00 93 1011.7
20260510100216 49 175 0.0 0.0 0.00 0.00 0.00 93 1011.7
20260510095715 49 175 0.0 0.0 0.00 0.00 0.00 93 1011.6
20260510095216 49 175 0.0 0.0 0.00 0.00 0.00 93 1011.6
20260510094718 49 175 0.0 0.0 0.00 0.00 0.00 93 1011.7
20260510094216 49 175 0.0 0.0 0.00 0.00 0.00 93 1011.7
20260510093718 49 175 0.0 0.0 0.00 0.00 0.00 93 1011.8
20260510093216 49 175 0.0 0.0 0.00 0.00 0.00 93 1011.7
20260510092713 49 175 0.0 0.0 0.00 0.00 0.00 93 1011.7
20260510092212 49 175 0.0 0.0 0.00 0.00 0.00 93 1011.7
20260510091712 49 175 0.0 0.0 0.00 0.00 0.00 93 1011.7
20260510091213 49 175 0.0 0.0 0.00 0.00 0.00 93 1011.7
20260510090713 50 175 0.0 0.0 0.00 0.00 0.00 93 1011.8
20260510090212 50 175 0.0 0.0 0.00 0.00 0.00 93 1011.7
20260510085712 50 175 0.0 0.0 0.00 0.00 0.00 94 1011.7
20260510085213 50 175 0.0 0.0 0.00 0.00 0.00 94 1011.6
20260510084712 50 175 0.0 0.0 0.00 0.00 0.00 95 1011.6
20260510084212 49 175 0.0 0.0 0.00 0.00 0.00 93 1011.6
20260510083713 49 175 0.0 0.0 0.00 0.00 0.00 93 1011.6
20260510083214 49 175 0.0 0.0 0.00 0.00 0.00 92 1011.6
20260510082713 49 175 0.0 0.0 0.00 0.00 0.00 93 1011.5
20260510082216 49 175 0.0 0.0 0.00 0.00 0.00 93 1011.6
20260510081716 49 175 0.0 0.0 0.00 0.00 0.00 92 1011.5
20260510081215 50 175 0.0 0.0 0.00 0.00 0.00 92 1011.5
20260510080717 50 175 0.0 0.0 0.00 0.00 0.00 95 1011.4
20260510080215 49 175 0.0 0.0 0.00 0.00 0.00 93 1011.4
20260510075717 49 175 0.0 0.0 0.00 0.00 0.00 91 1011.3
20260510075215 49 175 0.0 0.0 0.00 0.00 0.00 90 1011.2
20260510074716 50 175 0.0 0.0 0.00 0.00 0.00 90 1011.1
20260510073215 50 175 0.0 0.0 0.00 0.00 0.00 92 1011.0
20260510072717 50 175 0.0 0.0 0.00 0.00 0.00 92 1010.7
20260510072218 50 175 0.0 0.0 0.00 0.00 0.00 92 1010.7
20260510071218 50 175 0.0 0.0 0.00 0.00 0.00 91 1010.7
20260510070718 50 175 0.0 0.0 0.00 0.00 0.00 91 1010.6
20260510070219 51 175 0.0 0.0 0.00 0.00 0.00 91 1010.6
20260510065719 51 175 0.0 0.0 0.00 0.00 0.00 90 1010.6
20260510065219 51 175 0.0 0.0 0.00 0.00 0.00 89 1010.5
20260510064720 51 175 0.0 0.0 0.00 0.00 0.00 90 1010.5
20260510064219 52 175 0.0 0.0 0.00 0.00 0.00 91 1010.5
20260510063718 52 175 0.0 0.0 0.00 0.00 0.00 92 1010.4
20260510063218 52 175 0.0 0.0 0.00 0.00 0.00 92 1010.5
20260510062720 52 175 0.0 0.0 0.00 0.00 0.00 91 1010.4
20260510062218 52 175 0.0 0.0 0.00 0.00 0.00 89 1010.5
20260510061718 52 175 0.0 0.0 0.00 0.00 0.00 89 1010.4
20260510060719 53 175 0.0 0.0 0.00 0.00 0.00 89 1010.3
20260510060218 53 175 0.0 0.0 0.00 0.00 0.00 90 1010.4
20260510055718 53 175 0.0 0.0 0.00 0.00 0.00 89 1010.4
20260510055218 53 175 0.0 0.0 0.00 0.00 0.00 89 1010.5
20260510054720 53 175 0.0 0.0 0.00 0.00 0.00 90 1010.5
20260510054218 53 175 0.0 0.0 0.00 0.00 0.00 90 1010.5
20260510053219 54 175 0.0 0.0 0.00 0.00 0.00 89 1010.6
20260510052716 54 175 0.0 0.0 0.00 0.00 0.00 89 1010.7
20260510051716 54 175 0.0 0.0 0.00 0.00 0.00 88 1010.5
20260510051217 54 175 0.0 0.0 0.00 0.00 0.00 87 1010.6
20260510050715 55 175 0.0 0.0 0.00 0.00 0.00 88 1010.6
20260510045716 55 175 0.0 0.0 0.00 0.00 0.00 88 1010.6
20260510045215 55 175 0.0 0.0 0.00 0.00 0.00 87 1010.7
20260510044715 55 175 0.0 0.0 0.00 0.00 0.00 88 1010.7
20260510044216 56 175 0.0 0.0 0.00 0.00 0.00 87 1010.7
20260510043716 56 175 0.0 0.0 0.00 0.00 0.00 86 1010.6
20260510043217 56 175 0.0 0.0 0.00 0.00 0.00 87 1010.6
20260510042715 56 175 0.0 0.0 0.00 0.00 0.00 88 1010.6
20260510042215 56 175 0.0 0.0 0.00 0.00 0.00 88 1010.7
20260510041716 56 175 0.0 0.0 0.00 0.00 0.00 88 1010.7
20260510041215 56 175 0.0 0.0 0.00 0.00 0.00 87 1010.6
20260510040717 57 175 0.0 0.0 0.00 0.00 0.00 86 1010.6
20260510040215 57 175 0.0 0.0 0.00 0.00 0.00 86 1010.6
20260510035716 57 175 0.0 0.0 0.00 0.00 0.00 86 1010.6
20260510035215 57 175 0.0 0.0 0.00 0.00 0.00 86 1010.5
20260510034716 57 175 0.0 0.0 0.00 0.00 0.00 86 1010.5
20260510034216 57 175 0.0 0.0 0.00 0.00 0.00 86 1010.6
20260510033715 58 175 0.0 0.0 0.00 0.00 0.00 86 1010.6
20260510033215 58 175 0.0 0.0 0.00 0.00 0.00 85 1010.5
20260510032717 58 175 0.0 0.0 0.00 0.00 0.00 85 1010.5
20260510032215 58 175 0.0 0.0 0.00 0.00 0.00 84 1010.5
20260510031724 59 175 0.0 0.0 0.00 0.00 0.00 84 1010.5
20260510031215 59 175 0.0 0.0 0.00 0.00 0.00 83 1010.5
20260510030715 59 175 0.0 0.0 0.00 0.00 0.00 83 1010.4
20260510030215 60 175 0.0 0.0 0.00 0.00 0.00 82 1010.4
20260510025718 60 175 0.0 0.0 0.00 0.00 0.00 82 1010.4
20260510025215 60 175 0.0 0.0 0.00 0.00 0.00 81 1010.3
20260510024716 60 175 0.0 0.0 0.00 0.00 0.00 81 1010.3
20260510024217 60 175 0.0 0.0 0.00 0.00 0.00 81 1010.3
20260510023717 60 175 0.0 0.0 0.00 0.00 0.00 81 1010.2
20260510023216 60 175 0.0 0.0 0.00 0.00 0.00 81 1010.1
20260510022718 61 175 0.0 0.0 0.00 0.00 0.00 81 1010.1
20260510021718 61 175 0.0 0.0 0.00 0.00 0.00 80 1010.2
20260510021219 61 175 0.0 0.0 0.00 0.00 0.00 80 1010.1
20260510020719 61 175 0.0 0.0 0.00 0.00 0.00 80 1010.1
20260510020218 61 175 0.0 0.0 0.00 0.00 0.00 80 1010.1
20260510015718 62 175 0.0 0.0 0.00 0.00 0.00 79 1010.1
20260510015219 62 175 0.0 0.0 0.00 0.00 0.00 79 1010.1
20260510014720 62 175 0.0 0.0 0.00 0.00 0.00 79 1010.0
20260510014219 62 175 0.0 0.0 0.00 0.00 0.00 79 1009.9
20260510013718 62 175 0.0 0.0 0.00 0.00 0.00 79 1009.7
20260510013219 62 175 0.0 0.0 0.00 0.00 0.00 79 1009.7
20260510012718 62 175 0.0 2.0 0.00 0.00 0.00 79 1009.6
20260510012219 62 175 0.0 2.0 0.00 0.00 0.00 78 1009.6
20260510011718 62 175 0.0 2.0 0.00 0.00 0.00 78 1009.5
20260510011220 62 175 0.0 0.0 0.00 0.00 0.00 78 1009.4
20260510010718 63 175 0.0 0.0 0.00 0.00 0.00 78 1009.4
20260510010219 63 175 0.0 0.0 0.00 0.00 0.00 77 1009.4
20260510005718 63 175 0.0 0.0 0.00 0.00 0.00 77 1009.3
20260510005219 63 175 0.0 1.0 0.00 0.00 0.00 77 1009.3
20260510004721 63 175 0.0 1.0 0.00 0.00 0.00 77 1009.2
20260510004218 63 175 0.0 0.0 0.00 0.00 0.00 77 1009.3
20260510003719 64 175 0.0 0.0 0.00 0.00 0.00 76 1009.2
20260510003220 64 175 0.0 0.0 0.00 0.00 0.00 76 1009.1
20260510002719 64 175 0.0 0.0 0.00 0.00 0.00 74 1009.0
20260510002219 65 175 0.0 0.0 0.00 0.00 0.00 74 1009.0
20260510001719 65 175 0.0 0.0 0.00 0.00 0.00 74 1009.1
20260510000719 65 175 0.0 0.0 0.00 0.00 0.00 73 1009.0
20260510000219 66 175 0.0 0.0 0.00 0.00 0.00 72 1009.0
20260509235218 66 175 0.0 0.0 0.00 0.00 0.00 71 1008.8
20260509234721 66 175 0.0 2.0 0.00 0.00 0.00 71 1008.8
20260509234219 66 175 1.0 2.0 0.00 0.00 0.00 71 1008.9
20260509233219 67 181 0.0 0.0 0.00 0.00 0.00 71 1008.8
20260509232216 68 181 0.0 3.0 0.00 0.00 0.00 69 1008.7
20260509231716 68 181 0.0 0.0 0.00 0.00 0.00 68 1008.7
20260509230215 68 181 0.0 0.0 0.00 0.00 0.00 62 1008.7
20260509225215 68 181 0.0 0.0 0.00 0.00 0.00 63 1008.5
20260509224717 69 181 0.0 0.0 0.00 0.00 0.00 63 1008.6
20260509224216 69 181 0.0 0.0 0.00 0.00 0.00 62 1008.6
20260509223716 69 121 0.0 0.0 0.00 0.00 0.00 62 1008.6
20260509222716 69 137 0.0 0.0 0.00 0.00 0.00 62 1008.7
20260509221716 69 137 0.0 0.0 0.00 0.00 0.00 62 1008.6
20260509221216 69 137 0.0 0.0 0.00 0.00 0.00 61 1008.7
20260509220215 68 137 0.0 0.0 0.00 0.00 0.00 62 1008.7
20260509215715 69 137 0.0 0.0 0.00 0.00 0.00 66 1008.6
20260509215217 69 137 0.0 0.0 0.00 0.00 0.00 66 1008.7
20260509214715 69 137 0.0 0.0 0.00 0.00 0.00 64 1008.8
20260509214215 69 137 0.0 0.0 0.00 0.00 0.00 63 1008.7
20260509213716 69 137 0.0 0.0 0.00 0.00 0.00 63 1008.8
20260509213217 69 137 0.0 0.0 0.00 0.00 0.00 61 1008.8
20260509212219 69 157 0.0 0.0 0.00 0.00 0.00 62 1008.7
20260509211720 69 157 0.0 0.0 0.00 0.00 0.00 60 1008.7
20260509211219 69 98 0.0 0.0 0.00 0.00 0.00 63 1008.7
20260509210720 69 98 0.0 0.0 0.00 0.00 0.00 60 1008.8
20260509210218 69 98 0.0 0.0 0.00 0.00 0.00 61 1008.9
20260509205719 69 98 0.0 0.0 0.00 0.00 0.00 61 1008.7
20260509205219 69 98 0.0 0.0 0.00 0.00 0.00 61 1008.7
20260509204719 68 98 0.0 0.0 0.00 0.00 0.00 62 1008.7
20260509204219 68 96 0.0 0.0 0.00 0.00 0.00 63 1008.8
20260509203719 68 97 0.0 0.0 0.00 0.00 0.00 63 1008.7
20260509203219 68 97 0.0 0.0 0.00 0.00 0.00 62 1008.7
20260509202720 68 97 0.0 2.0 0.00 0.00 0.00 62 1008.7
20260509202503 68 97 0.0 2.0 0.00 0.00 0.00 61 1008.8
20260509201004 69 73 0.0 0.0 0.00 0.00 0.00 59 1008.7
20260509200216 69 84 0.0 0.0 0.00 0.00 0.00 60 1008.8
20260509195716 69 103 0.0 1.0 0.00 0.00 0.00 60 1008.9
20260509195218 69 113 0.0 1.0 0.00 0.00 0.00 61 1009.0
20260509194717 68 190 0.0 1.0 0.00 0.00 0.00 60 1009.0
20260509194216 68 205 0.0 1.0 0.00 0.00 0.00 61 1009.1
20260509193717 68 205 0.0 1.0 0.00 0.00 0.00 61 1009.3
20260509193217 68 172 0.0 0.0 0.00 0.00 0.00 62 1009.5
20260509192717 67 171 0.0 0.0 0.00 0.00 0.00 62 1009.5
20260509192221 67 171 0.0 2.0 0.00 0.00 0.00 61 1009.5
20260509191720 67 171 0.0 2.0 0.00 0.00 0.00 61 1009.5
20260509190719 67 199 0.0 0.0 0.00 0.00 0.00 63 1009.5
20260509190221 67 199 0.0 0.0 0.00 0.00 0.00 62 1009.6
20260509185720 67 199 0.0 0.0 0.00 0.00 0.00 65 1009.8
20260509184720 68 199 0.0 1.0 0.00 0.00 0.00 59 1009.8
20260509184221 68 148 0.0 1.0 0.00 0.00 0.00 61 1009.8
20260509183719 67 219 0.0 1.0 0.00 0.00 0.00 62 1009.9
20260509183223 67 276 0.0 0.0 0.00 0.00 0.00 64 1009.9
20260509182717 67 276 0.0 0.0 0.00 0.00 0.00 61 1009.9
20260509182216 66 276 0.0 0.0 0.00 0.00 0.00 66 1010.1
20260509181717 66 276 0.0 1.0 0.00 0.00 0.00 61 1010.3
20260509181217 66 276 0.0 1.0 0.00 0.00 0.00 64 1010.5
20260509180717 65 276 0.0 0.0 0.00 0.00 0.00 62 1010.6
20260509180217 65 296 0.0 3.0 0.00 0.00 0.00 61 1010.6
20260509175719 65 295 0.0 3.0 0.00 0.00 0.00 63 1010.7
20260509175216 65 105 0.0 0.0 0.00 0.00 0.00 63 1010.7
20260509174717 65 105 0.0 0.0 0.00 0.00 0.00 62 1010.8
20260509174217 65 105 0.0 0.0 0.00 0.00 0.00 60 1010.8
20260509173717 65 106 0.0 0.0 0.00 0.00 0.00 63 1010.8
20260509173217 65 118 0.0 0.0 0.00 0.00 0.00 63 1010.9
20260509172716 64 119 0.0 0.0 0.00 0.00 0.00 64 1011.0
20260509172215 64 119 0.0 0.0 0.00 0.00 0.00 65 1011.0
20260509171714 64 121 0.0 0.0 0.00 0.00 0.00 65 1011.0
20260509171213 64 121 0.0 0.0 0.00 0.00 0.00 64 1011.0
20260509170715 64 121 0.0 0.0 0.00 0.00 0.00 65 1011.1
20260509170215 64 121 0.0 0.0 0.00 0.00 0.00 64 1011.1
20260509165716 64 118 0.0 0.0 0.00 0.00 0.00 62 1011.1
20260509165214 64 118 0.0 0.0 0.00 0.00 0.00 63 1011.1
20260509164713 64 118 0.0 0.0 0.00 0.00 0.00 62 1011.0
20260509164215 64 118 0.0 0.0 0.00 0.00 0.00 63 1011.0
20260509163714 64 118 0.0 0.0 0.00 0.00 0.00 59 1011.0
20260509163214 64 219 0.0 0.0 0.00 0.00 0.00 64 1011.2
20260509162714 63 219 0.0 0.0 0.00 0.00 0.00 63 1011.1
20260509162214 64 219 0.0 0.0 0.00 0.00 0.00 63 1011.2
20260509161215 63 174 0.0 0.0 0.00 0.00 0.00 62 1011.2